Duncan, OK

11:19 PM CST on January 22, 2017 (GMT -0600)
Halliburton

Weather History for KDUC - December, 2012

Change the Weather History Date:

Wednesday, December 26, 2012

  Actual Average (KLAW) Record (KLAW)
Temperature  
Mean Temperature 24 °F -  
Max Temperature 32 °F 46 °F 78 °F (2005)
Min Temperature 15 °F 25 °F 6 °F (1983)
Degree Days  
Heating Degree Days 42    
Moisture  
Dew Point 16 °F    
Average Humidity 75    
Maximum Humidity 93    
Minimum Humidity 59    
Precipitation  
Precipitation 0.00 in - - ()
Sea Level Pressure  
Sea Level Pressure 30.19 in    
Wind  
Wind Speed 11 mph (North)    
Max Wind Speed 18 mph    
Max Gust Speed 25 mph    
Visibility 10 miles    
Events      
Averages and records for this station are not official NWS values.
T = Trace of Precipitation, MM = Missing Value Source: NWS Daily Summary

Daily Weather History Graph

Daily Weather History Graph

Search for Another Location

Airport or City:

Trip Planner

Search our weather history database for the weather conditions in past years. The results will help you decide how hot, cold, wet, or windy it might be!

Date:

Astronomy

Dec. 26, 2012 Rise Set
Actual Time 7:36 AM CST 5:28 PM CST
Civil Twilight 7:09 AM CST 5:56 PM CST
Nautical Twilight 6:37 AM CST 6:28 PM CST
Astronomical Twilight 6:06 AM CST 6:58 PM CST
Moon 4:22 PM CST (12/26) 6:02 AM CST (12/26)
Length of Visible Light 10h 47m
Length of Day
9h 51m
Waxing Gibbous, 97% of the Moon is Illuminated
Dec 26
Waxing Gibbous
Dec 28
Full
Jan 4
Last Quarter
Jan 11
New
Jan 18
First Quarter

Hourly Weather History & Observations

Time (CST) Temp. Windchill Dew Point Humidity Pressure Visibility Wind Dir Wind Speed Gust Speed Precip Events Conditions
12:15 AM 21.2 °F 6.8 °F 14.0 °F 74% 30.21 in 10.0 mi North 17.3 mph 24.2 mph N/A   Overcast
12:35 AM 21.2 °F 6.4 °F 14.0 °F 74% 30.21 in 10.0 mi North 18.4 mph 24.2 mph N/A   Overcast
12:55 AM 21.2 °F 8.3 °F 14.0 °F 74% 30.21 in 10.0 mi North 13.8 mph 19.6 mph N/A   Overcast
1:15 AM 21.2 °F 7.8 °F 14.0 °F 74% 30.21 in 10.0 mi NNW 15.0 mph - N/A   Overcast
1:35 AM 21.2 °F 6.8 °F 14.0 °F 74% 30.21 in 10.0 mi North 17.3 mph 23.0 mph N/A   Overcast
1:55 AM 21.2 °F 7.3 °F 14.0 °F 74% 30.20 in 10.0 mi North 16.1 mph 24.2 mph N/A   Overcast
2:15 AM 21.2 °F 6.4 °F 14.0 °F 74% 30.19 in 10.0 mi North 18.4 mph 25.3 mph N/A   Overcast
2:35 AM 21.2 °F 6.4 °F 14.0 °F 74% 30.19 in 10.0 mi North 18.4 mph 25.3 mph N/A   Mostly Cloudy
2:55 AM 21.2 °F 7.3 °F 14.0 °F 74% 30.19 in 10.0 mi North 16.1 mph 19.6 mph N/A   Scattered Clouds
3:15 AM 21.2 °F 6.8 °F 14.0 °F 74% 30.18 in 10.0 mi North 17.3 mph 23.0 mph N/A   Clear
3:35 AM 19.4 °F 4.5 °F 14.0 °F 80% 30.17 in 10.0 mi North 17.3 mph 21.9 mph N/A   Clear
3:55 AM 19.4 °F 6.0 °F 14.0 °F 80% 30.18 in 10.0 mi North 13.8 mph 20.7 mph N/A   Clear
4:15 AM 19.4 °F 7.9 °F 14.0 °F 80% 30.18 in 10.0 mi North 10.4 mph 21.9 mph N/A   Scattered Clouds
4:35 AM 19.4 °F 7.9 °F 12.2 °F 74% 30.19 in 10.0 mi North 10.4 mph - N/A   Scattered Clouds
4:55 AM 19.4 °F 7.2 °F 12.2 °F 74% 30.20 in 10.0 mi NNW 11.5 mph - N/A   Clear
5:15 AM 17.6 °F 6.4 °F 12.2 °F 79% 30.20 in 10.0 mi North 9.2 mph - N/A   Clear
5:35 AM 17.6 °F 3.7 °F 10.4 °F 73% 30.20 in 10.0 mi North 13.8 mph - N/A   Clear
6:15 AM 17.6 °F 5.0 °F 10.4 °F 73% 30.23 in 10.0 mi NW 11.5 mph - N/A   Clear
6:35 AM 17.6 °F 5.0 °F 10.4 °F 73% 30.24 in 10.0 mi NNW 11.5 mph - N/A   Clear
6:55 AM 15.8 °F 2.7 °F 10.4 °F 79% 30.26 in 10.0 mi NW 11.5 mph - N/A   Clear
7:15 AM 15.8 °F 2.1 °F 10.4 °F 79% 30.24 in 10.0 mi NNW 12.7 mph - N/A   Clear
7:35 AM 15.8 °F 2.1 °F 10.4 °F 79% 30.25 in 10.0 mi NNW 12.7 mph - N/A   Clear
7:55 AM 15.8 °F 1.4 °F 10.4 °F 79% 30.23 in 10.0 mi North 13.8 mph - N/A   Clear
8:15 AM 15.8 °F 0.9 °F 10.4 °F 79% 30.25 in 10.0 mi North 15.0 mph 19.6 mph N/A   Clear
8:35 AM 17.6 °F 5.7 °F 10.4 °F 73% 30.26 in 10.0 mi NNW 10.4 mph 18.4 mph N/A   Clear
8:55 AM 17.6 °F 5.0 °F 10.4 °F 73% 30.27 in 10.0 mi NNW 11.5 mph 19.6 mph N/A   Clear
9:15 AM 17.6 °F 5.0 °F 10.4 °F 73% 30.27 in 10.0 mi North 11.5 mph - N/A   Clear
9:35 AM 19.4 °F 7.2 °F 12.2 °F 74% 30.28 in 10.0 mi North 11.5 mph - N/A   Clear
9:55 AM 19.4 °F 7.2 °F 12.2 °F 74% 30.27 in 10.0 mi North 11.5 mph - N/A   Clear
10:15 AM 21.2 °F 10.9 °F 12.2 °F 68% 30.27 in 10.0 mi North 9.2 mph - N/A   Clear
10:35 AM 21.2 °F 12.6 °F 12.2 °F 68% 30.28 in 10.0 mi North 6.9 mph - N/A   Clear
10:55 AM 23.0 °F 13.9 °F 14.0 °F 68% 30.29 in 10.0 mi NNW 8.1 mph - N/A   Clear
11:15 AM 23.0 °F 13.1 °F 14.0 °F 68% 30.28 in 10.0 mi North 9.2 mph - N/A   Clear
11:35 AM 23.0 °F 13.1 °F 14.0 °F 68% 30.28 in 10.0 mi NNW 9.2 mph - N/A   Clear
11:55 AM 24.8 °F 19.1 °F 14.0 °F 64% 30.27 in 10.0 mi North 4.6 mph - N/A   Clear
12:15 PM 26.6 °F 20.0 °F 14.0 °F 59% 30.26 in 10.0 mi NNW 5.8 mph - N/A   Clear
12:35 PM 26.6 °F 20.0 °F 15.8 °F 64% 30.25 in 10.0 mi NW 5.8 mph - N/A   Clear
12:55 PM 28.4 °F 23.3 °F 15.8 °F 59% 30.21 in 10.0 mi NNE 4.6 mph - N/A   Clear
1:15 PM 28.4 °F - 17.6 °F 64% 30.22 in 10.0 mi Calm Calm - N/A   Clear
1:35 PM 30.2 °F 24.3 °F 17.6 °F 60% 30.20 in 10.0 mi NNE 5.8 mph - N/A   Clear
1:55 PM 30.2 °F 25.4 °F 19.4 °F 64% 30.18 in 10.0 mi NE 4.6 mph - N/A   Clear
2:15 PM 32.0 °F 27.5 °F 19.4 °F 60% 30.17 in 10.0 mi ENE 4.6 mph - N/A   Clear
2:35 PM 32.0 °F 28.7 °F 21.2 °F 64% 30.17 in 10.0 mi ENE 3.5 mph - N/A   Clear
2:55 PM 32.0 °F 27.5 °F 21.2 °F 64% 30.18 in 10.0 mi SE 4.6 mph - N/A   Clear
3:15 PM 32.0 °F 28.7 °F 21.2 °F 64% 30.18 in 10.0 mi SSE 3.5 mph - N/A   Clear
3:35 PM 32.0 °F 28.7 °F 21.2 °F 64% 30.17 in 10.0 mi ESE 3.5 mph - N/A   Clear
3:55 PM 32.0 °F - 23.0 °F 69% 30.18 in 10.0 mi Calm Calm - N/A   Clear
4:15 PM 32.0 °F 26.4 °F 23.0 °F 69% 30.16 in 10.0 mi East 5.8 mph - N/A   Clear
4:35 PM 32.0 °F - 23.0 °F 69% 30.16 in 10.0 mi Calm Calm - N/A   Clear
4:55 PM 32.0 °F - 23.0 °F 69% 30.15 in 10.0 mi Calm Calm - N/A   Clear
5:15 PM 30.2 °F 26.7 °F 21.2 °F 69% 30.15 in 10.0 mi SSW 3.5 mph - N/A   Clear
5:35 PM 30.2 °F 25.4 °F 21.2 °F 69% 30.14 in 10.0 mi SSW 4.6 mph - N/A   Clear
5:55 PM 28.4 °F - 21.2 °F 74% 30.13 in 10.0 mi Calm Calm - N/A   Clear
6:15 PM 26.6 °F - 21.2 °F 80% 30.12 in 10.0 mi Calm Calm - N/A   Clear
6:55 PM 26.6 °F - 21.2 °F 80% 30.14 in 10.0 mi Calm Calm - N/A   Clear
7:15 PM 26.6 °F - 19.4 °F 74% 30.13 in 10.0 mi Calm Calm - N/A   Clear
7:35 PM 24.8 °F - 19.4 °F 80% 30.13 in 10.0 mi Calm Calm - N/A   Clear
7:55 PM 24.8 °F - 19.4 °F 80% 30.13 in 10.0 mi Calm Calm - N/A   Clear
8:15 PM 23.0 °F - 19.4 °F 86% 30.12 in 10.0 mi Calm Calm - N/A   Clear
8:35 PM 23.0 °F - 19.4 °F 86% 30.11 in 10.0 mi Calm Calm - N/A   Clear
8:55 PM 23.0 °F - 19.4 °F 86% 30.10 in 10.0 mi Calm Calm - N/A   Clear
9:15 PM 23.0 °F - 19.4 °F 86% 30.10 in 10.0 mi Calm Calm - N/A   Clear
9:35 PM 23.0 °F - 21.2 °F 93% 30.10 in 10.0 mi Calm Calm - N/A   Clear
9:55 PM 23.0 °F - 21.2 °F 93% 30.10 in 10.0 mi Calm Calm - N/A   Clear
10:15 PM 21.2 °F - 19.4 °F 93% 30.10 in 10.0 mi Calm Calm - N/A   Clear
10:35 PM 21.2 °F - 19.4 °F 93% 30.11 in 10.0 mi Calm Calm - N/A   Clear
10:55 PM 21.2 °F - 19.4 °F 93% 30.11 in 10.0 mi Calm Calm - N/A   Clear
11:15 PM 21.2 °F - 19.4 °F 93% 30.10 in 10.0 mi Calm Calm - N/A   Clear
11:35 PM 21.2 °F - 19.4 °F 93% 30.09 in 10.0 mi Calm Calm - N/A   Clear
11:55 PM 23.0 °F - 21.2 °F 93% 30.09 in 10.0 mi Calm Calm - N/A   Clear